Regional Weather Roundup
Issued by NWS

Home | Current Version | Previous Version | Graphics & Text | Print | Product List | Glossary Off
Versions: 1 2 3 4 5 6 7 8 9 10 11 12 13 14 15 16 17 18 19 20 21 22 23 24 25 26 27 28 29 30 31 32 33 34 35 36 37 38 39 40 41 42 43 44 45 46 47 48 49 50

000
ASUS43 KLSX 290859
RWRMO

WEATHER SUMMARY FOR MISSOURI
NATIONAL WEATHER SERVICE SPRINGFIELD MO
300 AM CST THU JAN 29 2015

NOTE: "FAIR" INDICATES FEW OR NO CLOUDS BELOW 12,000 FEET WITH NO
       SIGNIFICANT WEATHER AND/OR OBSTRUCTIONS TO VISIBILITY.
       CURRENT SKY AND/OR WEATHER CONDITIONS ARE NOT AVAILABLE FOR
       CHILLICOTHE AND FARMINGTON.

MOZ001>031-035>038-043-044-053-054-291000-
...NORTHERN AND WESTERN MISSOURI...

CITY           SKY/WX    TMP DP  RH WIND       PRES   REMARKS
KANSAS CTY INT MOCLDY    45  36  70 N20G31    30.01R
KANSAS C DTWN  LGT RAIN  48  36  63 N17G28    29.99R
LEE`S SUMMIT   CLOUDY    46  36  68 NW24G33   30.00R
ST JOSEPH      CLOUDY    44  36  73 NW26      30.04R
CHILLICOTHE      N/A     43  34  70 NW9G26    29.96R
KIRKSVILLE     FLURRIES  38  32  79 NW20G37   29.88R WCI  28

$$
MOZ066>068-077>081-088>096-101>105-291000-
...SOUTHWEST MISSOURI...

CITY           SKY/WX    TMP DP  RH WIND       PRES   REMARKS
SPRINGFIELD    CLEAR     56  36  47 NW14G22   29.94R
JOPLIN         CLEAR     51  35  54 NW10      30.00R

$$
MOZ032>034-039>042-045>050-055>058-069>072-291000-
...CENTRAL MISSOURI...

CITY           SKY/WX    TMP DP  RH WIND       PRES   REMARKS
COLUMBIA       CLEAR     50  37  61 NW26G32   29.84R
JEFFERSON CITY CLEAR     53  37  54 NW24      29.84R
ROLLA          CLEAR     51  39  63 SW14      29.82R
SEDALIA        CLEAR     48  37  65 NW17      29.92R
OSAGE BEACH    CLEAR     55  36  47 W6        29.88R

$$
MOZ051-052-059>065-291000-
...EAST CENTRAL MISSOURI...

CITY           SKY/WX    TMP DP  RH WIND       PRES   REMARKS
ST LOUIS INTL  MOCLDY    53  39  59 SW13      29.77F
SPIRIT OF STL  MOCLDY    53  39  59 SW12      29.77S
ST CHARLES     MOCLDY    47  38  71 SW7       29.76S

$$
MOZ072>076-082>087-097>100-106>115-291000-
...SOUTH CENTRAL AND SOUTHEAST MISSOURI...

CITY           SKY/WX    TMP DP  RH WIND       PRES   REMARKS
CAPE GIRARDEAU CLOUDY    48  38  68 SW13G21   29.90S
FARMINGTON     CLOUDY    48  37  66 SW10      29.88R
POPLAR BLUFF   CLOUDY    50  39  66 SW9       29.89F
WEST PLAINS    CLOUDY    51  40  65 SW6       29.91R

$$



USA.gov is the U.S. government's official web portal to all federal, state and local government web resources and services.